{"data":{"norad_id":49427,"intl_designator":"2021-104V","name":"STARLINK-3131","alt_names":[],"object_type":"PAYLOAD","status":"ACTIVE","operator":null,"country":"US","launch_date":"2021-11-13","launch_site_code":"AFETR","launch_vehicle":null,"mission":null,"orbit_class":"UNKNOWN","rcs_meters":null,"size_class":null,"mass_kg":null,"dimensions":null,"purposes":["comms"],"wikipedia_slug":null,"has_3d_model":false,"image_url":null,"decayed_at":null,"tle_current":{"epoch":"2026-05-24T23:32:35.992032Z","epoch_age_seconds":73753,"freshness":"FRESH","line1":"1 49427U 21104V   26144.98097213  .00005164  00000+0  34257-3 0  9999","line2":"2 49427  53.2126 246.6445 0001894  85.2369 274.8840 15.08814587250156","mean_motion":15.08814587,"eccentricity":0.0001894,"inclination_deg":53.2126,"raan_deg":246.6445,"arg_perigee_deg":85.2369,"mean_anomaly_deg":274.884,"bstar":0.00034257,"rev_number":25015,"period_min":95.439162134771,"perigee_km":538.51080617077,"apogee_km":541.13132868671,"semimajor_km":6917.9580674287,"source":"CELESTRAK","updated_at":"2026-05-25T13:38:16.798437Z"}}}